Location: Trois-Rivi�res
(46.3500°N, 72.5500°W)
Time: 07:25:38
(UTC-05:00)

Daily predictions for brighter satellites

Satellite Brightness Start Highest point End
(mag) Time Altitude Azimuth Time Altitude Azimuth Time Altitude Azimuth
Cosmos 2263 Rocket 3.5 16:28:47 10° WSW 16:33:57 36° NW 16:39:10 10° NNE
CZ-2C R/B 2.9 16:30:33 10° SE 16:35:14 40° ENE 16:40:02 10° N
Cosmos 1484 Rocket 4.4 16:36:26 10° E 16:38:26 14° ENE 16:40:27 10° NNE
Cosmos 1125 Rocket 4.0 16:33:59 10° SSW 16:39:15 63° WNW 16:44:34 10° NNE
SL-8 Rocket 4.0 16:37:03 10° N 16:43:13 67° ENE 16:49:20 10° SSE
SJ-12 4.3 16:39:27 10° SE 16:43:20 43° ENE 16:47:16 10° N
Cosmos 1455 Rocket 3.5 16:39:28 10° N 16:43:40 42° ENE 16:47:52 10° SSE
CSL-04 Rocket 4.2 16:39:06 10° S 16:44:32 69° WSW 16:50:06 10° NNW
Tiangong 1 3.6 16:44:15 10° S 16:45:22 12° SSE 16:46:28 10° SE
EO 1 Del DPAF 4.1 16:43:53 10° N 16:47:41 53° WNW 16:51:28 10° SSW
IDEFIX/ARIANE 42P 2.7 16:45:09 10° SE 16:50:10 53° ENE 16:55:13 10° N
CZ-3B DEB 2.4 16:51:29 10° SSW 16:55:00 51° SE 17:03:20 11° ENE
Cosmos 2366 rocket 4.1 16:49:16 10° N 16:55:35 62° ENE 17:01:49 10° SSE
AQUARIUS 4.2 16:51:59 10° SSE 16:56:23 57° ENE 17:00:48 10° N
Cosmos 1959 Rocket 4.5 16:50:59 10° N 16:57:10 72° E 17:03:24 10° SSE
Thor Agena Rocket 3.9 16:52:48 10° NNE 16:57:51 48° E 17:02:55 10° S
Cosmos 1844 Rocket 2.7 16:52:33 10° SSW 16:58:09 89° WNW 17:03:50 10° NNE
Cosmos 2218 Rocket 4.0 16:56:46 10° N 17:03:05 79° E 17:09:18 10° SSE
Cosmos 2251 Rocket 3.7 16:59:33 10° NNW 17:04:56 82° WSW 17:10:15 10° SSE
Cosmos 1812 2.8 17:03:42 10° S 17:07:27 54° E 17:11:15 10° NNE
Cosmos 2181 Rocket 4.4 17:02:50 10° SSW 17:09:10 71° W 17:15:38 10° N
SL-27 R/B 3.9 17:05:50 10° NNW 17:09:20 44° WSW 17:12:48 10° S
CZ-2C R/B 4.2 17:05:41 10° N 17:10:03 59° WNW 17:14:28 10° SSW
CORIOLIS 4.1 17:05:29 10° SSE 17:10:51 72° ENE 17:16:14 10° N
Meteor 1-18 Rocket 4.2 17:13:14 10° S 17:18:51 73° E 17:24:37 10° NNE
Okean 1 3.4 17:15:41 10° S 17:19:38 54° E 17:23:38 10° NNE
Intercosmos 25 3.9 17:16:54 10° NNE 17:19:43 25° ENE 17:22:25 10° SE
Cosmos 1844 3.8 17:15:52 10° SSW 17:21:25 79° WNW 17:27:02 10° NNE
Abrixas 2.3 17:18:27 10° WNW 17:21:26 90° WSW 17:23:15 21° ESE
Timation 2 Rocket 4.2 17:15:35 10° NNW 17:22:20 61° ENE 17:29:09 10° SE
Cosmos 2297 4.3 17:19:50 10° S 17:24:54 35° ESE 17:28:23 18° NE
Cosmos 1821 Rocket 4.4 17:24:02 10° N 17:29:40 36° ENE 17:35:14 10° SE
BREEZE-M DEB (TANK) 4.1 17:21:29 10° W 17:29:58 59° N 17:31:54 25° ENE
Cosmos 1346 Rocket 3.0 17:26:51 10° S 17:30:35 46° E 17:33:15 18° NNE
ISS -2.5 17:30:42 10° W 17:33:51 41° NNW 17:35:07 28° NE
COSMO-SKYMED 1 3.0 17:33:21 18° NE 17:36:14 41° E 17:40:20 10° S
Cosmos 2278 Rocket 2.1 17:31:00 10° SSW 17:36:40 86° ESE 17:41:48 13° NNE
USA 234 3.2 17:34:55 19° NE 17:39:57 90° NW 17:46:30 10° SW
SMAP 3.9 17:35:48 10° S 17:40:21 54° W 17:44:56 10° NNW
SL-24 DEB 4.2 17:35:47 10° N 17:40:34 76° E 17:45:15 10° S
Meteor 2-14 Rocket 4.4 17:36:10 10° N 17:42:15 59° ENE 17:48:17 10° SSE
BREEZE M DEB (TANK) 2.9 17:45:03 10° WNW 17:48:15 75° NNE 17:53:28 21° E
Genesis I 4.2 17:46:37 10° NW 17:50:25 47° WSW 17:54:09 10° SSE
SL-8 R/B 3.6 17:45:44 10° WSW 17:50:32 78° SSE 17:52:28 36° ENE
NOSS 3-4 (A) 3.9 17:45:31 10° NW 17:52:18 55° NE 17:57:34 19° ESE
METEOR-M 4.4 17:47:20 10° SE 17:52:19 42° ENE 17:57:19 10° N
NOSS 3-4 (C) 3.9 17:45:37 10° NW 17:52:24 55° NE 17:57:35 19° ESE
Cosmos 407 Rocket 4.3 17:48:46 10° N 17:52:46 29° NE 17:52:46 29° NE
Cosmos 1536 Rocket 4.3 17:51:39 10° SSW 17:56:01 55° WNW 18:00:27 10° N
Cosmos 1833 Rocket 2.6 17:51:13 10° NNW 17:56:54 76° ENE 18:02:31 10° SSE
Nadezhda 3 Rocket 3.9 17:51:16 10° S 17:57:27 75° E 18:03:45 10° NNE
Cosmos 2082 Rocket 2.1 17:53:55 10° NNW 17:59:37 90° W 18:05:18 10° SSE
Cosmos 1025 Rocket 3.6 17:56:00 10° SSE 17:59:27 37° ESE 17:59:27 37° ESE
NOSS 3-3 (A) 4.1 17:54:54 10° SW 18:01:10 80° NW 18:05:35 23° NE
NOSS 3-3 (C) 4.1 17:55:01 10° SW 18:01:16 80° NW 18:05:40 23° NE
Meteor 1-19 Rocket 4.3 17:56:09 10° S 18:01:50 60° E 18:06:47 14° NNE
Cosmos 921 Rocket 2.9 17:58:26 10° S 18:02:37 60° ESE 18:03:31 48° NE
Meteor 2-21 Rocket 4.4 17:57:19 10° N 18:03:33 89° W 18:09:43 10° S
YAOGAN 1 4.5 18:00:20 10° SSW 18:04:13 32° W 18:08:07 10° NNW
Cosmos 1975 4.3 18:00:28 10° NNW 18:04:16 38° W 18:08:01 10° SSW
Cosmos 1743 2.6 18:00:55 10° N 18:04:50 86° E 18:08:41 10° S
CZ-4 R/B 4.1 18:02:39 10° SW 18:05:51 21° W 18:09:02 10° NW
Meteor 2-16 Rocket 4.3 18:00:04 10° N 18:06:11 80° E 18:12:16 10° SSE
SKYMED 3 4.4 18:03:45 24° NNE 18:06:22 85° E 18:10:43 10° SSW
COSMOS 2487 4.0 18:05:45 10° NW 18:09:06 37° WSW 18:12:26 10° S
Meteor 1-15 Rocket 4.5 18:04:10 10° N 18:09:53 48° ENE 18:15:30 10° SSE
GEOS 3 Rocket 3.4 18:06:32 21° SE 18:10:04 81° NE 18:15:13 10° NW
Cosmos 1371 Rocket 4.2 18:06:03 10° S 18:11:10 48° ESE 18:11:45 46° E
Cosmos 1484 Rocket 3.5 18:08:53 10° S 18:12:31 50° W 18:16:11 10° NNW
Meteor 1-28 Rocket 3.9 18:15:53 43° SSE 18:15:53 43° SSE 18:18:35 10° S
Tiangong 1 3.0 18:18:14 10° SW 18:19:54 24° SSW 18:19:54 24° SSW
Meteor 1-13 Rocket 4.3 18:16:00 10° SSW 18:21:41 79° W 18:27:34 10° N
SKYMED 2 3.9 18:21:59 25° N 18:24:23 63° WNW 18:28:40 10° SSW
Meteor 1-23 Rocket 4.1 18:22:53 10° S 18:28:30 63° E 18:29:14 57° ENE
FALCON 9 R/B 4.0 18:11:18 10° WSW 18:31:44 43° S 18:35:31 27° SE
BREEZE-M R/B 3.5 18:24:55 10° WSW 18:34:01 84° NNW 18:34:44 67° NE
Meteor 2-9 Rocket 4.0 18:31:12 10° NNW 18:36:43 88° W 18:42:03 10° S
Meteor 2-4 Rocket 3.4 18:32:37 10° S 18:38:00 85° E 18:38:54 63° NNE
Okean 1-7 Rocket 4.3 18:33:42 10° SSW 18:38:06 54° WNW 18:39:56 32° NNW
Cosmos 1190 Rocket 3.9 18:36:58 10° NNW 18:41:50 75° N 18:41:50 75° N
Cosmos 1934 Rocket 4.0 18:40:00 10° N 18:46:12 77° W 18:52:28 10° S
BREEZE M DEB (TANK) 4.3 19:05:50 10° WSW 19:08:45 27° WSW 19:08:45 27° WSW
Cosmos 2278 Rocket 4.3 19:17:25 10° W 19:21:31 20° NW 19:23:40 17° NNW
USA 234 3.9 19:22:16 43° N 19:22:36 43° NNW 19:28:42 10° W
CZ-3B DEB 3.7 19:24:02 10° W 19:30:02 55° N 19:31:38 50° NNE
